Voltar ao catálogo

THORAD AGENA D DEB

AtivoLEO
NORAD 4144·DEBRIS·🇺🇸 United States

Lançado Sep 30, 1969 de Vandenberg Space Force Base

Loading…

Próximas Passagens (próximas 24 horas)

TLE

AtualizadoSource: Space-Track

Época: Sep 14, 2026, 17:18 UTC

1 04144U 69082N   26257.72090987  .00001479  00000-0  29754-3 0  9993
2 04144  70.0776   4.5336 0034553 356.5970   3.4931 14.63238625979609

Acompanhe THORAD AGENA D DEB em tempo real com AllMySat

Download on the App Store